Theta_e
303 303 304 304 304 304 305 305 305 305 304 300 298 302 300 301 297 310 314 314 312 303 292 295 291 292 295 299 297 298 296 295 296 294 295 293 296 295 295 293 292 294 293 293 291 292 290 295 293 295 297 299 300 302 302 304 300 300 297 300 299 303 288 285 287 291 294 297 298 299 300 298 295 295 297 296 291 294 290 285 287 286 287 284 282 281 286
303 303 304 304 304 304 305 305 305 305 304 300 300 298 298 299 300 304 311 313 310 297 283 284 285 291 295 296 295 298 296 295 294 293 294 293 293 293 293 294 296 292 295 293 291 295 285 294 293 292 297 295 303 303 301 304 298 300 297 294 300 287 289 289 282 282 283 286 291 292 298 297 292 290 294 297 298 297 296 295 291 284 288 288 283 278 284
303 303 304 304 304 304 305 305 305 305 305 304 300 296 300 298 303 303 305 310 307 293 296 293 286 290 292 292 291 293 295 297 296 295 293 295 293 295 293 294 294 293 295 293 294 294 292 292 296 295 295 295 302 302 301 303 300 303 305 309 307 292 289 287 281 278 276 276 277 280 283 288 292 295 295 297 297 296 289 282 284 281 286 290 284 284 293
303 303 304 304 304 305 305 305 305 305 305 304 301 301 297 296 285 296 298 301 300 297 301 296 293 288 290 285 291 294 291 296 298 298 294 295 295 294 294 294 295 293 293 292 291 292 295 292 294 294 293 297 301 301 304 303 303 305 308 306 303 291 296 292 287 283 282 284 288 293 292 292 287 292 294 296 298 297 295 287 282 282 284 283 287 290 291
302 303 303 304 304 305 305 305 305 304 304 304 300 301 299 301 290 287 283 293 294 293 295 294 295 288 294 284 292 290 292 294 295 299 292 295 294 294 296 293 291 291 291 290 290 292 291 294 295 294 294 297 297 301 302 302 306 308 305 306 298 293 287 294 293 292 291 294 294 295 294 291 292 292 292 296 296 296 294 284 283 292 285 282 290 293 290
302 303 303 304 304 304 305 305 305 304 303 304 304 298 302 290 293 296 296 290 283 284 286 295 293 296 294 289 294 291 291 292 288 296 296 297 296 291 293 294 294 294 292 293 286 291 291 293 289 298 297 296 298 297 301 301 305 305 301 305 299 294 285 292 294 293 295 296 294 295 294 294 294 293 293 293 294 294 291 290 294 293 283 284 290 295 294
302 303 303 303 304 304 305 305 305 304 303 305 305 297 297 296 295 296 300 289 293 293 296 297 295 293 293 291 292 289 290 289 291 292 294 295 294 295 283 291 294 294 295 294 290 291 284 284 295 294 294 295 294 292 297 299 304 302 300 301 300 294 287 296 297 293 295 292 293 293 293 293 293 292 293 293 293 292 292 292 294 296 293 295 295 294 292
302 302 303 303 304 304 305 305 305 303 303 307 305 297 294 292 291 291 297 296 293 295 294 294 292 286 292 285 290 290 290 289 292 294 292 285 291 295 292 292 294 294 295 293 288 290 294 293 286 294 293 292 295 294 295 294 301 305 300 300 300 294 285 295 295 290 290 293 292 292 292 293 291 292 293 293 293 292 292 291 291 293 294 295 293 290 289
302 302 302 303 303 304 305 305 305 303 303 305 302 297 298 299 301 300 293 288 291 292 292 291 288 284 286 285 290 291 291 290 293 293 296 293 290 292 291 293 294 296 292 292 291 293 293 293 293 295 294 287 297 292 294 299 294 298 298 298 298 295 286 294 292 283 283 292 292 291 292 291 290 290 291 291 290 287 289 286 292 290 288 291 291 288 287
301 302 302 303 303 304 305 305 306 304 304 302 302 296 299 299 302 302 297 286 292 291 293 292 289 282 287 288 289 291 291 293 294 286 295 296 296 294 293 294 292 293 291 290 291 293 294 295 295 296 296 297 296 296 298 298 296 294 296 298 292 294 289 285 285 283 283 291 292 291 290 287 284 285 289 291 291 291 292 293 294 293 291 286 286 287 295
301 301 302 303 303 304 304 305 305 304 303 299 299 299 298 295 295 296 298 287 286 289 289 287 288 290 294 294 292 294 293 293 293 287 285 294 295 296 295 292 290 286 289 291 296 297 297 297 297 297 297 296 296 295 296 298 299 299 295 293 293 294 291 286 292 282 282 288 290 288 283 277 280 291 294 294 290 290 288 288 291 294 294 291 294 293 293
301 301 302 302 303 304 304 305 305 305 303 302 302 302 301 302 300 299 291 286 285 290 287 284 288 291 293 294 295 293 291 291 292 295 290 293 295 295 294 293 291 282 292 296 297 297 298 299 299 297 297 296 297 297 297 297 299 300 299 293 291 290 289 285 290 284 282 285 286 283 276 278 289 294 296 295 294 293 291 291 293 292 292 292 291 291 291
301 301 302 302 303 304 304 305 305 306 305 303 302 301 303 305 302 298 294 287 282 287 283 287 291 293 293 295 293 294 294 295 296 296 297 293 293 293 295 293 291 291 296 294 296 295 292 292 292 294 294 294 295 295 295 297 297 299 297 299 292 285 285 286 286 285 285 283 281 276 279 288 294 293 293 297 295 294 291 289 292 293 292 291 289 290 292
301 301 302 302 303 304 304 305 305 306 306 305 302 303 303 303 299 297 293 287 283 287 289 288 290 290 291 290 290 294 294 294 294 295 292 294 293 291 295 294 294 294 295 296 293 292 288 287 283 286 288 290 290 288 292 295 296 296 298 299 297 294 291 287 284 286 282 282 281 280 287 287 288 287 288 289 287 288 286 282 287 294 293 292 290 290 290
301 301 302 302 303 304 304 305 305 306 306 305 303 305 303 303 303 300 299 295 283 285 288 281 287 290 291 290 290 288 289 291 291 289 295 296 293 295 295 295 295 297 296 293 289 290 287 286 281 280 283 282 279 281 290 288 293 295 295 295 297 295 287 287 285 283 284 282 280 281 280 279 283 289 292 294 293 293 293 288 284 294 295 294 292 291 291
301 301 302 302 303 304 304 305 305 306 306 305 304 304 303 304 305 303 299 293 285 280 284 291 293 292 289 289 291 288 285 284 286 288 291 293 292 292 294 294 298 299 297 295 291 286 284 281 279 279 278 280 286 284 280 288 286 293 294 294 295 297 295 289 285 283 283 282 278 277 277 280 285 287 290 293 294 294 295 288 284 293 295 295 294 292 292
301 301 302 302 303 303 304 305 305 306 305 305 301 303 301 305 304 300 297 294 288 282 291 293 294 293 288 287 290 287 288 284 287 282 282 284 289 291 293 296 295 299 293 289 287 284 282 282 285 283 285 289 283 279 287 286 284 285 291 292 291 290 285 285 284 281 282 281 279 277 281 280 286 289 292 294 296 296 290 280 280 292 294 294 293 292 292
301 301 302 302 303 303 304 305 305 306 305 305 303 302 301 305 306 303 300 293 285 284 289 293 291 286 285 287 286 290 292 291 289 290 285 289 289 289 291 294 291 296 297 288 287 283 282 282 280 281 281 289 290 289 277 284 280 281 283 285 283 283 284 284 282 281 282 281 279 281 281 286 290 290 292 293 297 295 282 278 284 294 294 294 294 294 295
301 301 302 302 302 303 304 305 305 305 306 305 304 306 302 303 306 304 299 292 288 282 290 294 295 291 292 294 291 292 292 290 288 283 282 282 285 291 293 294 294 286 293 285 287 283 282 283 288 284 281 284 288 280 286 280 280 287 286 282 283 282 283 283 284 282 281 281 280 279 281 285 290 292 294 293 290 281 279 289 297 295 293 293 293 293 293
301 301 301 302 302 303 304 304 305 305 306 306 304 301 305 303 306 305 298 294 290 286 290 291 293 290 293 290 287 287 288 289 288 284 281 280 289 292 288 283 290 291 286 288 282 286 282 281 282 286 280 282 286 290 284 284 288 284 285 286 282 282 281 280 281 281 282 282 279 277 274 284 292 293 289 291 284 284 292 294 294 295 294 293 293 293 293
301 301 301 302 302 303 304 304 305 305 306 306 304 302 302 303 305 304 304 299 293 284 287 295 295 293 293 292 293 292 290 286 287 284 286 287 290 287 280 279 285 285 282 282 280 281 282 280 281 281 286 285 285 286 282 281 283 288 288 286 285 288 282 281 281 283 278 278 277 277 284 287 292 290 283 288 291 294 294 293 291 293 293 292 292 292 292
301 301 301 302 302 303 304 304 305 305 306 306 305 305 299 302 306 304 306 303 292 286 291 296 296 293 295 297 297 294 293 294 295 294 288 284 290 287 286 288 288 288 288 288 283 282 285 282 285 280 279 281 287 281 285 281 279 284 289 287 280 289 285 283 280 282 280 280 283 288 290 290 291 291 290 291 293 294 293 293 292 291 291 292 291 291 292
300 301 301 301 302 303 303 304 304 304 305 305 304 301 300 304 302 304 303 299 297 298 299 298 296 295 298 297 298 298 298 299 299 297 294 288 284 287 286 286 286 292 292 291 286 284 284 284 280 284 281 282 281 279 283 281 279 282 280 287 286 291 290 290 287 284 289 290 290 292 290 289 289 291 292 292 293 294 293 293 291 292 292 292 291 292 293
301 301 301 301 302 302 303 303 304 304 304 305 304 300 300 304 301 301 300 299 290 287 288 292 288 284 290 292 296 296 297 297 298 299 299 295 284 283 289 292 294 293 290 292 292 287 284 284 286 286 280 282 284 280 280 280 278 283 283 282 286 289 290 287 282 286 285 280 289 289 288 289 290 290 292 292 292 292 292 291 291 292 293 293 293 292 291
300 300 301 301 302 302 303 303 304 304 304 305 304 304 305 303 300 301 297 289 288 288 283 284 286 294 296 297 296 295 297 298 300 297 299 297 293 288 286 291 295 290 289 292 293 287 283 281 282 282 279 285 285 279 284 282 281 286 280 282 284 282 291 286 286 285 283 283 287 288 290 290 292 291 290 291 291 292 292 292 293 293 293 293 293 293 290
300 300 300 301 301 302 302 303 303 303 304 305 304 300 300 300 302 303 300 299 298 294 284 282 289 299 297 296 295 297 300 299 298 299 299 298 298 296 295 295 295 298 295 296 292 285 283 281 281 280 279 281 287 281 280 283 283 286 283 282 287 287 290 280 285 283 286 289 290 291 291 290 289 291 291 291 292 292 293 294 294 293 292 291 292 291 291
300 300 300 301 301 302 302 303 303 303 304 304 302 302 302 303 303 299 296 296 291 286 286 283 289 294 296 295 297 298 299 297 297 297 297 297 296 296 296 293 291 291 291 288 290 285 284 282 281 281 283 283 287 286 285 283 284 281 280 284 288 286 282 287 286 282 281 282 286 289 283 283 287 289 290 290 292 292 292 292 291 292 291 290 290 291 292
300 300 300 300 301 302 302 303 303 303 303 304 303 303 305 304 301 301 301 300 294 286 286 286 286 291 296 294 297 296 298 298 296 296 295 296 297 297 295 292 291 290 289 286 282 282 281 281 280 282 283 284 282 282 285 285 286 282 281 283 286 284 285 284 281 282 282 288 290 291 290 288 289 290 291 291 292 292 291 290 289 290 290 289 289 289 290
300 300 300 301 301 302 302 303 303 303 303 302 301 302 304 305 302 301 302 303 301 296 290 290 292 292 285 291 297 295 297 298 298 297 297 297 298 294 292 294 289 290 291 286 283 282 281 282 284 282 281 287 285 280 282 280 279 278 280 285 286 288 290 289 288 288 288 291 291 291 288 287 290 291 291 290 291 292 291 290 289 288 288 288 288 288 287
300 300 300 301 301 302 302 302 303 303 303 301 301 300 295 296 302 300 300 303 301 299 288 285 282 284 295 296 296 295 296 297 298 298 298 294 295 292 292 292 289 292 290 285 283 279 282 283 283 287 290 291 282 282 281 281 278 279 286 286 288 289 290 290 290 286 285 291 292 292 291 291 291 290 290 290 291 291 289 288 289 289 288 288 286 287 288
300 300 301 301 301 302 302 302 303 303 302 300 299 289 288 286 296 302 301 302 303 299 290 289 284 289 288 295 295 292 295 296 296 295 296 295 294 292 294 292 290 290 282 283 282 282 282 280 281 284 288 286 284 281 279 278 278 279 284 286 287 287 288 289 291 291 292 291 293 292 291 290 291 290 290 289 289 289 289 288 291 292 289 289 288 288 287
300 300 301 301 302 302 302 302 302 302 301 300 294 292 292 294 297 301 302 303 303 298 289 285 283 283 284 288 295 296 296 298 299 298 294 295 293 293 294 294 287 293 288 284 284 283 281 283 281 283 283 288 286 280 280 279 278 278 285 286 287 288 289 288 289 289 289 290 289 287 286 286 286 285 285 288 288 289 288 289 289 289 291 289 288 288 288
300 301 301 302 302 302 303 303 303 302 299 302 304 303 301 301 301 301 303 302 301 294 296 287 282 283 283 287 294 298 297 296 294 293 289 292 292 292 288 294 293 292 298 287 282 281 285 283 283 281 285 287 280 281 281 278 281 285 286 288 287 287 287 288 288 288 288 289 289 286 284 285 285 286 287 287 288 287 288 288 288 288 286 286 287 288 289
301 301 302 302 303 303 302 302 302 302 302 299 298 300 303 302 302 303 301 302 299 297 292 285 281 281 282 290 288 291 296 288 288 290 283 292 294 292 285 289 289 283 287 284 285 284 284 284 280 280 285 281 282 280 278 281 285 286 287 287 287 286 287 287 287 287 287 287 287 287 287 288 289 288 288 288 288 288 289 288 288 287 287 287 287 288 288
301 301 302 303 302 302 302 301 300 301 297 299 302 300 303 302 302 301 303 300 290 286 285 284 284 282 282 283 282 287 297 292 285 289 284 288 295 289 289 283 284 282 283 291 283 283 281 282 286 281 280 284 280 277 279 283 285 286 287 287 286 286 286 285 286 287 288 288 288 287 287 287 287 288 289 289 289 289 288 287 287 286 285 285 286 287 289
301 301 302 302 302 301 300 302 298 298 299 298 299 304 303 303 303 303 304 305 299 290 285 284 284 282 283 280 280 284 295 290 291 292 290 286 286 293 290 285 281 283 288 284 281 283 281 287 283 279 283 281 279 281 281 285 286 286 286 286 287 288 287 287 287 288 290 289 289 288 289 288 287 287 287 288 287 287 287 286 286 286 285 285 285 287 288
301 301 303 302 301 300 297 293 301 301 299 301 304 304 303 303 305 304 302 301 302 301 291 285 284 282 285 281 284 284 290 281 288 286 287 284 282 284 285 282 280 283 283 282 282 280 285 290 282 278 280 279 280 285 287 286 286 286 287 288 290 290 289 288 288 288 288 289 290 288 288 288 289 289 288 288 288 287 286 285 285 285 284 285 285 288 287
301 302 299 298 298 290 289 292 299 304 303 303 304 301 300 298 289 290 292 290 295 297 289 292 284 286 289 286 281 289 289 283 288 283 283 285 283 282 284 282 281 283 278 281 283 289 285 281 280 280 280 284 285 286 286 286 287 287 287 289 289 290 290 289 289 288 285 285 286 287 287 287 286 286 286 286 286 285 285 286 287 287 286 287 286 288 286
301 299 298 298 295 288 289 297 305 301 302 303 302 292 288 289 287 285 284 286 285 283 287 287 284 288 287 285 285 292 289 284 283 284 280 285 282 279 282 279 282 282 279 279 280 288 279 280 281 280 279 282 282 285 289 288 288 288 289 288 289 289 290 289 290 289 287 285 286 288 287 284 283 284 285 285 286 286 287 286 286 287 286 288 288 287 285
299 295 290 292 290 293 301 302 299 301 299 291 291 288 283 286 283 280 286 283 283 285 287 283 289 289 289 285 284 284 291 287 281 280 282 283 289 281 282 282 283 280 275 277 279 286 278 275 280 280 279 282 283 287 287 287 287 288 288 288 288 289 289 290 290 292 291 289 290 289 289 288 287 287 286 286 286 286 286 286 286 286 287 286 286 284 284
298 298 297 290 298 300 299 301 302 300 292 287 285 284 283 280 284 285 283 281 281 282 289 288 290 288 289 289 287 283 290 294 290 289 285 280 286 286 281 277 283 278 278 278 282 282 281 278 278 277 277 282 284 286 286 287 287 288 289 289 289 289 290 292 291 291 291 290 290 290 289 288 288 287 287 287 286 285 287 286 285 288 289 287 286 286 285
295 294 296 298 299 301 301 296 292 288 285 286 281 278 282 282 284 284 284 280 281 284 285 288 285 285 284 287 288 288 287 292 288 285 283 280 284 281 279 281 282 277 274 281 283 282 280 276 277 278 282 284 285 286 286 287 287 286 287 288 288 289 289 290 291 291 292 291 291 291 290 289 288 287 288 288 287 286 287 287 287 289 290 287 286 284 285
300 300 299 297 296 291 291 286 288 286 278 278 277 277 280 278 280 280 281 285 287 286 285 296 291 293 293 294 290 291 287 292 285 284 283 280 285 283 279 278 278 275 280 283 281 279 276 275 276 279 283 285 285 286 286 287 286 286 286 287 289 289 289 290 291 291 292 292 290 289 288 288 287 288 289 288 287 287 288 288 289 289 288 287 287 286 285
300 300 296 291 288 287 287 277 286 283 279 281 278 275 277 278 280 282 281 282 284 284 288 286 288 288 283 287 286 285 285 288 288 285 283 285 282 279 278 276 277 282 284 280 279 276 278 280 281 282 284 286 288 286 285 286 286 285 286 287 288 289 290 291 290 290 290 291 291 290 290 289 288 288 288 288 287 287 288 288 289 289 288 286 286 285 284
292 289 288 284 282 284 282 272 283 280 276 278 282 280 280 279 281 283 282 285 289 286 290 291 289 287 285 289 289 288 286 283 287 283 281 283 279 281 278 277 281 281 278 275 277 277 278 278 283 284 285 285 284 284 285 285 285 285 286 287 288 289 289 290 292 291 290 290 290 290 288 288 288 287 287 287 287 288 288 289 289 287 286 286 285 285 285
288 285 284 277 272 278 281 277 279 277 282 284 282 285 283 286 286 286 291 293 288 289 288 288 288 288 285 288 284 283 286 285 282 282 283 282 278 277 282 284 282 276 275 276 273 273 275 280 283 282 284 284 284 284 284 285 287 287 287 286 287 287 288 288 289 291 291 290 289 289 289 288 288 287 287 288 287 287 287 288 289 288 288 286 286 286 286
289 288 287 284 279 281 283 279 279 281 285 286 289 289 288 288 289 289 290 291 289 290 291 290 289 289 285 285 285 285 286 285 280 282 282 278 279 281 284 278 272 274 271 270 273 276 279 282 283 284 285 284 284 284 285 286 287 286 287 288 287 288 288 288 288 289 289 289 289 289 290 290 289 288 288 287 288 288 288 289 289 289 289 287 287 286 286
284 287 286 278 276 281 279 281 287 287 290 289 289 290 290 290 288 287 290 291 291 291 290 290 285 284 284 288 287 283 284 285 281 282 282 280 282 279 276 274 274 277 278 276 277 281 283 284 284 284 284 284 283 282 285 286 287 288 287 287 288 288 289 288 289 289 289 289 290 290 289 289 290 288 288 288 288 289 289 289 288 289 288 287 288 287 286
288 285 282 281 283 284 282 285 286 285 288 288 289 288 288 288 288 289 290 291 290 289 290 288 285 285 283 286 283 282 280 284 279 279 282 279 274 271 272 271 272 272 278 281 281 283 283 285 286 286 286 285 285 283 287 288 288 287 288 288 288 288 289 289 289 289 290 289 289 289 289 289 289 288 288 289 288 288 289 290 290 289 289 287 287 286 286
286 284 286 284 283 284 286 288 285 284 285 286 286 286 288 288 288 290 293 292 292 290 289 288 287 284 283 283 281 282 281 284 283 283 280 277 278 279 277 273 275 275 279 283 284 284 285 286 286 285 286 286 287 287 287 288 288 288 288 288 289 288 289 290 290 290 291 291 292 290 289 289 288 287 288 288 290 290 289 289 290 289 289 288 288 286 286
289 286 286 288 285 283 285 282 282 283 284 284 286 286 288 288 288 289 293 292 291 287 285 284 285 284 283 281 279 275 278 283 280 279 279 279 282 280 278 276 279 282 283 285 285 285 285 285 284 284 285 286 287 287 288 289 288 288 289 290 289 289 290 289 290 290 289 290 290 289 290 289 289 290 290 290 290 290 290 289 289 290 289 289 288 287 287
285 283 283 286 289 290 289 287 287 286 287 288 288 290 290 288 291 291 294 291 288 284 283 285 284 282 281 279 281 283 284 282 280 280 277 281 283 279 280 280 282 283 284 284 285 287 286 285 285 284 286 287 287 289 290 291 290 289 289 289 290 290 290 289 289 289 290 289 289 289 289 289 289 290 290 290 289 289 287 288 289 289 289 289 288 288 288
Wind_Speed
21 21 22 23 23 23 23 24 24 21 20 7 6 5 2 2 3 3 7 4 4 3 1 2 1 2 4 9 13 13 11 10 11 15 12 7 7 5 3 5 7 5 6 7 5 7 3 5 5 6 2 4 8 4 8 1 2 6 1 4 5 6 1 3 3 2 3 4 5 9 10 9 7 9 9 8 4 3 3 5 7 4 1 3 4 3 1
21 22 21 22 23 24 23 23 22 18 15 6 6 2 2 3 3 1 5 5 6 1 1 4 7 4 6 6 9 9 9 11 12 10 11 3 4 4 3 5 2 6 10 11 10 3 0 1 5 2 5 3 5 4 5 1 3 3 2 5 4 2 4 1 2 3 5 7 8 4 6 9 3 4 5 6 5 7 4 3 4 5 4 9 6 2 0
21 22 22 22 23 24 23 24 22 18 13 8 3 1 3 4 2 2 3 3 2 1 2 1 3 6 6 7 10 8 6 7 13 11 10 8 3 3 3 6 8 6 9 11 7 4 6 2 5 6 3 3 7 10 6 7 2 3 7 9 1 3 4 2 1 2 2 0 2 2 1 1 1 4 9 10 10 5 4 3 3 2 1 8 6 2 2
21 22 22 22 23 24 24 23 21 19 14 9 1 3 2 2 2 1 2 2 4 3 2 4 4 2 4 5 6 9 7 9 10 15 9 9 6 2 4 7 7 7 10 8 6 9 9 5 1 2 1 1 0 3 1 11 5 5 8 6 4 2 1 2 1 2 1 2 3 2 2 3 5 4 12 9 10 8 5 5 3 0 1 5 1 11 6
22 21 22 22 23 24 24 24 23 21 15 6 3 2 2 4 0 1 3 2 6 3 4 5 3 2 3 0 5 7 8 8 8 12 5 5 5 3 1 4 6 4 5 4 4 4 9 10 12 8 5 5 2 9 13 2 8 7 4 4 6 2 1 3 5 4 3 3 2 5 4 4 6 9 8 12 10 8 10 4 2 3 3 4 3 8 8
21 21 22 23 23 25 25 25 25 25 22 8 4 2 2 1 2 3 1 2 2 4 4 5 3 4 3 2 6 5 8 7 5 8 9 14 6 3 6 8 12 14 6 8 6 10 5 8 4 6 6 5 3 4 8 7 12 9 3 3 6 3 1 5 4 5 2 2 8 6 4 4 6 10 11 10 10 11 9 1 5 1 3 7 3 9 11
21 21 22 23 24 24 25 25 26 28 28 11 5 1 3 2 2 3 3 2 1 4 0 3 1 3 7 0 7 7 9 6 5 1 6 9 5 10 3 7 11 12 11 7 4 7 5 5 4 3 5 4 4 3 5 6 10 10 8 7 3 1 2 2 4 3 3 6 7 5 6 3 8 12 10 10 12 6 7 6 8 13 10 11 13 15 13
21 21 22 23 24 24 24 25 26 27 30 12 2 5 3 4 3 2 5 2 3 3 1 0 4 4 7 3 5 7 7 7 8 7 8 4 6 7 5 9 9 11 9 9 6 4 1 2 3 5 5 6 2 1 2 2 3 2 0 1 4 5 3 6 3 3 2 5 8 5 6 6 4 7 9 10 9 9 7 5 7 11 12 10 15 15 11
21 21 22 23 23 23 23 24 25 26 25 6 6 4 4 2 3 2 2 2 1 2 1 3 4 3 3 3 1 2 9 6 8 6 8 5 6 9 8 10 5 6 9 7 6 7 6 7 5 6 5 3 3 1 1 4 5 5 0 0 1 6 0 5 1 2 3 5 4 8 8 9 8 7 6 5 5 6 2 3 2 6 6 6 12 11 7
21 20 21 22 22 22 23 23 23 22 19 3 4 4 4 3 3 5 2 1 4 2 2 4 3 3 1 1 3 2 5 7 8 2 6 9 9 9 10 7 4 3 5 6 5 7 7 7 8 6 6 6 8 3 3 4 5 3 2 1 4 4 3 3 5 5 3 7 11 7 7 5 5 6 7 3 9 8 5 7 6 5 12 7 5 6 6
20 20 21 21 22 22 22 22 20 20 12 6 3 3 4 5 5 4 1 1 3 7 2 4 4 2 3 2 2 3 3 7 6 4 2 7 8 9 8 7 6 2 4 6 10 8 8 6 6 5 6 7 7 8 6 4 4 6 7 3 2 5 6 4 3 2 2 8 7 7 5 4 2 4 7 1 4 6 12 7 7 8 6 5 7 10 9
19 19 20 21 21 22 22 21 20 19 11 4 2 3 3 3 3 2 1 2 3 7 5 4 2 2 1 2 2 3 5 4 4 3 3 2 5 6 6 5 5 3 5 10 9 9 12 11 10 9 10 8 7 8 7 1 6 6 4 8 5 5 5 6 4 5 1 2 5 6 2 2 2 9 7 12 10 11 14 11 11 12 13 14 13 12 12
19 19 20 20 21 21 21 21 20 19 18 8 2 2 3 5 2 3 2 3 6 5 6 6 9 5 6 2 3 1 3 1 2 4 2 2 3 4 2 3 3 4 8 9 11 11 7 4 5 3 5 6 7 7 5 1 5 4 4 6 7 4 7 3 2 4 1 2 2 3 2 1 2 3 10 7 8 7 11 11 9 7 9 12 13 11 11
18 18 19 20 20 21 21 21 21 20 18 12 5 3 3 5 5 4 3 2 4 4 4 5 10 9 11 4 4 3 1 2 2 1 1 1 2 3 2 3 2 4 4 6 7 5 3 2 2 3 4 3 2 3 10 9 10 5 2 3 1 7 2 2 2 1 3 3 3 4 3 2 7 4 5 7 5 5 1 5 3 4 4 11 12 11 11
17 18 18 19 20 20 21 21 21 21 20 19 3 3 4 5 3 1 2 1 2 4 6 5 7 7 7 6 7 7 3 3 2 5 3 0 2 1 4 4 3 3 5 4 3 2 0 0 1 3 2 4 2 2 3 4 4 8 11 6 3 2 3 3 2 1 2 7 4 2 1 3 2 3 7 3 5 7 7 6 2 2 4 4 11 13 12
17 18 18 19 19 19 20 20 20 19 19 20 6 5 3 4 2 1 0 1 2 5 7 6 7 5 5 7 9 7 6 5 7 7 1 2 1 5 3 4 1 1 3 2 2 2 1 2 1 2 1 1 3 2 2 2 3 6 9 16 13 7 5 3 4 1 2 3 5 2 2 1 1 6 7 6 4 8 7 5 3 1 2 3 6 8 8
17 18 18 19 19 19 19 19 19 19 17 17 7 5 3 7 5 4 2 2 6 4 5 9 6 6 5 6 8 6 6 5 7 5 4 4 7 9 11 7 6 0 4 4 4 2 2 0 0 1 2 1 3 2 2 1 2 4 9 7 12 10 6 6 7 3 1 2 3 3 2 1 3 6 6 6 4 6 2 6 2 3 3 3 4 5 4
16 17 18 19 19 19 19 19 19 19 20 21 9 3 3 5 5 7 1 3 3 3 4 7 7 6 5 5 4 5 4 5 7 4 4 7 6 8 10 5 8 7 11 4 5 2 2 0 1 2 2 3 1 1 1 1 2 1 2 1 3 5 3 4 2 2 4 6 2 3 1 1 3 5 9 8 1 1 5 3 1 1 4 3 4 4 3
17 17 18 19 19 19 19 19 19 19 18 19 11 3 2 5 6 8 3 4 4 4 5 7 6 6 5 5 4 5 5 5 5 3 5 6 4 13 14 7 7 4 7 5 5 3 3 4 3 3 2 2 2 2 1 2 1 0 6 4 3 2 0 2 3 3 2 1 5 2 1 2 5 9 5 2 1 4 5 1 0 10 7 10 11 12 10
17 17 18 18 19 19 20 19 19 19 19 20 10 1 6 4 5 6 5 3 1 4 3 5 5 8 5 6 6 7 6 7 6 4 4 4 10 11 7 7 10 5 8 5 5 4 3 5 4 2 3 0 0 2 4 6 4 5 2 2 4 1 1 2 2 2 2 2 4 2 1 3 9 5 4 9 5 3 4 7 9 7 9 10 11 11 10
16 17 17 18 19 19 20 20 20 20 20 22 13 2 4 5 6 7 4 3 0 4 3 3 5 6 4 6 5 5 6 6 5 5 5 3 7 3 4 3 6 3 4 4 5 4 3 4 4 3 3 3 4 3 2 2 3 5 3 3 3 4 2 2 2 1 2 2 2 2 1 3 8 8 4 2 3 4 6 9 8 8 8 10 9 9 8
16 16 17 17 18 19 19 20 20 19 19 20 17 5 4 6 6 7 7 4 2 2 2 3 3 4 5 3 3 4 4 4 4 2 3 5 5 5 1 3 5 3 1 2 2 3 4 2 2 3 4 4 3 4 6 5 4 2 6 5 4 3 5 2 4 3 2 2 4 5 5 5 6 7 7 9 11 12 11 10 8 8 7 5 8 8 9
16 16 16 17 18 19 19 19 19 19 18 19 13 3 2 6 7 7 4 3 2 1 0 1 4 4 2 6 4 3 4 2 2 3 4 3 4 4 6 5 4 3 1 2 2 1 4 2 2 0 2 3 4 2 7 3 3 3 3 3 7 8 11 8 9 8 10 9 7 7 5 6 8 7 7 8 9 9 8 9 9 9 9 9 9 9 7
15 16 16 16 17 18 18 18 19 18 19 18 10 3 3 4 5 7 7 1 2 0 4 6 4 2 1 5 2 4 3 2 2 3 4 4 4 4 1 1 0 2 1 4 2 1 4 1 3 2 4 3 4 5 4 4 3 3 4 4 2 3 3 3 6 7 6 5 3 6 7 6 6 8 9 9 8 8 8 10 9 9 9 9 7 8 9
15 16 15 16 16 17 17 18 18 18 18 18 15 6 4 2 4 5 4 3 4 2 1 1 1 4 2 4 2 2 4 3 3 5 2 4 3 2 2 4 2 1 4 6 3 4 2 3 5 4 4 1 4 2 3 3 3 4 6 5 3 1 5 8 4 5 5 5 5 5 6 5 6 6 6 8 9 8 7 6 6 6 6 6 7 7 7
14 15 15 16 16 16 17 17 17 17 17 18 12 3 3 3 4 4 1 1 1 1 1 1 1 1 1 1 3 7 5 5 5 3 4 3 2 2 2 4 3 1 3 3 2 6 4 4 3 3 4 3 3 2 3 4 5 4 9 4 3 3 3 3 2 5 7 9 7 7 7 6 6 7 7 6 5 7 7 6 6 6 7 6 5 6 5
14 14 15 15 16 16 17 17 17 16 16 16 9 6 4 4 4 6 4 3 2 1 4 1 1 1 2 4 2 5 6 6 5 4 4 5 4 3 3 5 5 5 6 7 3 4 3 3 4 4 3 1 2 1 2 6 6 4 4 5 5 8 6 5 7 8 4 4 8 8 6 5 5 6 6 5 5 6 6 5 6 5 5 5 4 6 8
15 15 15 15 16 16 16 17 16 16 15 14 7 6 5 1 4 6 5 5 4 2 1 3 1 1 3 4 4 4 6 5 4 4 3 3 3 3 3 4 4 4 5 4 6 4 4 6 4 2 1 2 5 5 3 3 5 6 6 4 3 6 2 2 3 4 5 5 7 8 7 7 6 5 4 4 4 6 6 6 6 7 8 7 8 6 5
15 15 15 15 16 16 17 16 16 15 16 11 6 5 3 3 5 6 5 5 2 0 2 3 1 2 1 1 3 2 5 4 2 2 2 3 1 4 5 4 4 3 3 2 2 2 3 2 0 2 1 0 1 3 4 4 4 4 2 4 6 4 6 11 8 7 7 7 8 6 5 6 4 6 8 10 8 6 7 7 8 7 7 5 4 4 6
15 15 15 16 16 16 16 16 16 15 14 6 3 1 0 1 3 4 5 3 3 0 1 3 1 0 1 2 3 5 1 6 3 4 5 5 2 2 1 2 4 4 3 1 2 3 1 1 0 1 1 1 2 0 2 2 3 1 0 6 9 12 10 9 7 6 5 7 10 8 8 6 4 6 7 6 6 8 9 8 6 5 4 5 2 3 5
15 15 15 16 16 15 15 15 14 14 11 3 1 1 1 1 1 3 7 5 4 2 0 0 1 0 1 1 0 4 4 5 1 1 4 3 2 4 4 3 3 5 6 6 4 1 1 2 1 3 1 3 2 1 1 2 3 2 4 7 8 8 6 7 6 5 5 6 7 5 4 5 5 7 7 6 5 5 4 4 5 5 2 2 1 5 5
15 15 15 15 16 15 14 13 12 10 5 4 3 1 1 1 3 6 7 5 4 1 0 1 1 0 0 1 0 1 1 2 1 2 1 3 4 5 3 3 2 2 2 0 1 1 2 1 2 2 2 3 2 2 4 4 4 4 3 6 5 6 6 6 5 5 6 5 6 8 8 6 5 5 3 5 5 2 2 5 4 4 4 2 0 4 5
16 15 15 16 16 15 14 12 9 5 2 4 7 8 10 9 9 8 5 4 0 1 1 0 2 1 1 2 1 1 3 1 0 1 2 3 2 1 1 1 1 2 4 2 2 1 0 1 1 2 2 2 2 1 2 4 4 4 7 7 7 6 6 5 5 6 9 11 8 6 5 5 4 4 5 3 5 8 8 6 5 4 4 4 4 4 8
15 16 16 15 15 13 11 10 9 7 4 1 1 2 2 1 5 5 4 1 1 2 0 0 1 0 0 2 1 3 2 2 2 2 1 2 1 1 0 0 1 2 3 2 0 1 2 4 3 1 2 2 1 2 2 2 4 7 8 7 6 5 4 5 7 7 6 6 6 5 5 4 4 4 5 1 2 6 7 6 8 7 6 6 4 3 6
17 16 16 15 13 11 11 7 3 1 1 3 0 0 1 2 4 6 3 1 2 1 1 1 1 0 1 1 1 2 2 2 2 2 1 1 1 3 2 3 1 1 3 1 2 2 2 1 1 2 1 1 2 3 3 4 6 5 7 8 6 5 2 3 5 6 6 6 6 5 4 4 3 2 3 2 5 6 8 6 6 5 4 4 4 6 3
17 17 15 14 12 7 2 1 1 1 1 0 1 2 4 5 6 2 2 2 0 0 0 1 0 2 1 3 0 1 2 1 2 2 2 1 2 1 1 1 2 2 1 1 1 2 2 1 1 1 0 2 3 1 2 4 4 5 5 5 7 7 4 3 7 7 7 7 6 4 2 0 0 3 2 1 4 7 8 7 5 4 3 2 2 4 4
17 17 15 10 4 1 1 1 1 0 1 2 4 7 8 4 2 1 1 0 1 0 1 0 2 2 2 2 1 1 1 3 3 2 3 3 0 1 1 2 1 1 2 2 3 2 0 1 2 1 1 2 2 3 6 6 6 4 4 2 3 5 5 7 8 8 7 6 5 2 1 0 1 1 1 2 3 7 7 6 6 5 3 0 4 1 2
16 11 3 1 0 0 0 0 0 1 3 6 6 3 0 1 0 0 0 1 1 2 1 1 1 1 1 4 1 2 0 2 2 1 1 1 1 1 1 1 1 1 3 1 1 1 2 1 0 2 5 3 3 6 5 5 5 4 4 4 4 3 6 6 7 7 5 5 3 3 2 2 4 5 5 6 2 5 5 6 5 6 4 1 2 2 1
5 1 1 2 1 1 0 1 1 3 2 3 0 0 0 1 0 0 1 1 1 1 2 1 2 5 5 4 1 2 2 1 2 2 2 1 2 1 1 2 1 1 1 1 2 2 1 0 1 2 1 1 3 3 4 4 4 3 4 5 5 4 6 5 5 5 3 3 5 5 5 4 4 4 4 4 4 4 5 5 5 5 4 3 2 1 4
1 1 1 2 0 0 1 1 4 2 1 1 0 0 0 0 0 0 1 0 0 0 1 1 1 1 1 2 2 1 4 3 4 2 1 1 1 1 1 0 0 1 0 2 1 1 0 1 0 3 1 2 0 1 4 5 5 5 5 5 5 5 3 6 4 5 4 7 9 8 6 5 4 4 3 4 2 4 4 4 4 3 4 3 5 4 3
1 2 1 1 2 1 1 1 1 0 0 1 0 0 1 0 1 0 1 1 1 1 0 0 1 1 2 4 4 2 3 1 1 0 0 1 2 0 1 0 0 0 0 2 1 0 0 1 1 2 1 1 1 3 5 6 6 6 6 5 5 5 5 1 5 5 3 5 7 7 6 6 5 4 4 3 3 4 5 4 4 1 1 2 3 4 5
1 2 2 4 5 5 0 0 0 0 0 0 0 1 0 0 0 0 0 0 0 0 2 1 3 2 2 2 1 2 0 1 0 0 0 1 1 1 0 1 1 1 0 0 0 1 0 1 1 1 2 1 4 4 5 7 7 7 8 5 5 5 7 6 4 5 7 7 6 6 5 4 3 1 2 2 4 4 5 4 4 3 3 4 2 4 8
14 8 3 3 1 0 0 0 1 0 1 1 1 1 0 0 1 1 1 0 1 1 1 1 2 1 1 1 1 1 1 0 1 1 0 0 0 0 1 1 0 0 0 1 1 1 1 0 1 2 4 1 4 5 5 6 5 5 4 5 1 1 4 3 2 3 6 7 6 6 5 4 3 3 0 0 2 3 2 3 4 3 4 3 4 6 7
6 3 2 1 0 0 0 0 0 1 1 0 1 1 1 0 1 1 1 1 0 2 1 1 2 2 0 1 0 0 1 2 1 0 0 1 0 0 0 0 0 0 0 0 1 2 1 2 1 3 2 4 4 5 5 5 4 4 4 3 2 1 0 1 2 3 3 8 6 4 1 0 1 3 1 3 4 2 1 2 3 3 4 4 3 5 6
1 0 1 1 0 0 1 2 2 0 1 1 1 1 2 2 2 2 2 0 1 3 2 1 3 5 3 1 1 2 1 0 0 2 0 0 1 0 0 1 1 1 0 1 1 1 1 2 1 4 6 5 4 4 4 3 3 3 2 3 6 6 5 3 1 2 5 6 4 5 3 3 1 2 4 1 4 3 2 2 3 4 3 3 2 3 6
0 1 1 3 3 3 0 1 1 1 1 1 2 2 2 6 4 3 1 1 3 2 3 5 4 4 1 1 2 1 0 0 0 0 0 1 0 1 1 1 0 1 1 0 1 1 2 1 1 4 5 5 4 3 2 3 4 4 3 4 4 5 5 6 5 4 3 3 3 3 2 2 2 2 2 2 2 4 4 4 2 5 4 4 5 4 7
1 0 0 0 1 1 0 1 2 2 2 2 1 7 7 5 3 3 2 3 5 4 4 3 3 2 1 2 1 1 1 1 0 0 1 0 0 0 1 1 1 0 1 1 1 1 1 1 3 4 4 4 4 4 3 1 2 4 3 1 1 1 3 5 5 5 0 4 3 2 2 2 3 4 1 2 4 1 3 1 2 2 6 4 4 3 5
0 0 0 1 2 1 2 3 2 3 1 6 5 6 5 4 5 6 6 4 4 5 5 3 3 3 1 1 1 0 0 1 0 0 1 0 1 0 1 1 0 1 1 1 1 2 1 1 2 4 5 4 4 2 2 1 3 2 2 2 2 3 4 4 5 6 5 2 3 4 4 3 1 3 1 3 2 1 1 1 3 2 3 4 2 1 3
1 0 0 1 1 1 2 5 4 3 3 5 4 4 4 7 7 5 3 2 5 6 4 2 1 1 1 0 0 0 0 1 1 0 0 1 1 0 0 0 0 1 1 2 2 2 2 1 3 3 2 2 3 1 0 1 1 3 2 4 1 3 2 3 2 3 7 5 3 5 4 6 6 2 3 2 3 4 4 3 3 2 2 4 3 3 4
0 0 0 1 2 2 3 1 4 2 4 5 3 3 8 7 5 4 3 2 3 2 2 2 2 1 0 1 1 1 0 1 0 0 0 0 1 1 1 1 1 1 0 0 2 3 3 3 3 4 4 4 2 1 1 2 3 3 3 4 2 3 3 1 0 2 2 7 2 4 5 6 5 3 4 5 5 3 4 4 3 3 3 3 4 3 4
0 0 1 1 1 2 3 3 3 3 3 4 5 4 2 6 4 3 2 1 2 2 1 0 1 0 1 0 1 0 0 1 1 0 1 1 1 1 2 2 0 3 4 3 3 4 3 3 2 2 1 1 3 4 1 0 2 3 4 3 4 3 3 2 3 4 4 6 5 7 7 5 3 3 2 2 1 3 2 2 4 4 4 4 4 5 5
0 1 1 2 4 4 3 3 1 4 4 4 5 1 3 5 3 2 0 1 1 1 1 0 0 0 1 1 0 0 0 0 0 1 1 1 1 0 1 1 3 2 1 2 3 1 1 2 4 2 1 0 1 2 3 5 4 4 5 4 3 2 2 4 3 2 2 3 4 2 4 5 5 5 5 5 4 4 4 4 2 2 4 3 5 6 6
Wind_Direction
345 344 344 343 341 339 338 338 340 342 345 356 358 313 290 215 281 145 129 160 151 212 262 233 240 259 288 307 300 310 306 301 319 319 302 285 10 341 323 341 346 327 305 291 306 326 320 147 176 185 128 159 196 191 227 4 28 89 304 51 343 29 65 315 288 338 341 14 55 27 29 32 47 39 40 28 17 312 213 173 183 151 306 48 10 65 206
346 345 342 341 340 340 338 337 340 342 357 344 309 300 299 315 304 153 171 165 192 64 10 354 316 294 309 306 304 301 297 304 291 286 323 352 354 334 325 317 307 307 322 299 274 288 358 56 131 99 129 204 214 218 249 38 17 67 223 119 312 45 305 105 291 355 342 350 1 14 29 48 59 57 29 31 8 31 16 54 43 107 205 158 117 187 276
346 345 342 340 338 338 336 337 338 341 344 341 322 327 310 291 260 202 178 193 172 86 167 128 293 327 336 332 313 315 310 315 321 323 307 321 284 346 322 331 326 329 324 323 324 344 303 342 44 141 206 136 185 213 218 121 123 89 144 98 149 92 265 347 140 157 130 288 242 260 346 35 355 66 41 33 38 7 47 55 353 80 297 112 113 122 258
346 344 342 340 339 337 336 335 335 337 341 329 234 255 317 303 354 314 89 13 44 49 65 44 347 354 349 340 310 334 326 332 332 329 303 333 340 349 324 311 342 320 321 329 348 343 323 305 241 61 307 91 43 53 189 139 162 153 98 91 96 129 270 310 264 164 167 204 181 202 148 59 55 33 50 45 43 47 94 100 73 209 270 75 298 147 136
346 345 343 342 340 338 337 337 335 332 337 314 216 245 224 314 49 24 357 325 37 13 26 13 18 341 300 250 332 330 341 329 324 351 330 333 323 321 345 344 340 318 328 304 339 336 330 4 40 11 8 351 339 47 25 47 127 130 82 68 81 58 15 274 273 284 212 188 139 149 117 89 61 57 57 57 51 62 63 82 197 220 77 20 53 126 103
347 347 345 344 342 341 340 338 337 334 335 338 191 296 198 199 48 94 137 119 282 13 357 349 3 319 25 344 328 347 351 359 16 339 323 316 338 22 358 15 357 340 10 32 20 353 347 40 1 354 16 347 346 39 41 49 355 355 46 86 102 110 338 270 256 294 319 320 129 137 97 102 92 80 68 62 61 54 78 353 281 226 140 160 137 107 101
348 349 347 345 344 343 342 340 341 341 335 338 185 34 333 46 331 35 2 78 300 101 209 307 338 356 5 204 359 343 359 13 37 88 288 331 357 17 10 356 358 359 26 39 50 13 33 352 339 24 327 16 350 26 66 15 32 359 40 18 32 97 217 311 326 243 260 95 83 80 109 126 106 92 90 85 71 63 74 63 24 74 79 104 108 85 63
349 349 347 346 346 345 344 344 348 345 340 334 122 52 28 16 350 330 339 156 129 156 176 175 40 41 1 47 2 320 350 7 356 7 54 340 349 9 42 349 21 7 13 36 46 9 15 292 330 329 357 334 357 32 122 118 83 240 65 133 344 82 309 334 356 340 326 104 88 74 71 75 94 104 99 90 93 68 44 55 36 62 72 77 83 81 78
350 349 348 346 346 346 346 349 351 349 347 31 7 38 25 314 4 332 0 337 216 178 190 101 78 38 354 51 18 306 329 10 357 358 41 40 15 11 16 6 357 31 16 28 22 350 342 317 299 310 326 306 288 126 257 129 144 109 356 121 3 66 154 322 16 57 319 10 67 97 68 69 63 59 42 92 78 67 358 48 334 99 102 89 92 88 102
350 350 348 346 345 347 348 350 353 355 342 39 343 13 336 354 346 18 11 316 257 191 123 94 77 22 268 182 297 346 340 358 14 0 345 6 13 9 356 9 19 35 21 15 342 309 307 293 292 285 296 280 291 242 231 167 144 148 86 62 87 121 112 60 8 39 355 22 10 1 89 57 39 358 330 59 90 115 88 53 49 120 131 108 92 127 127
351 351 349 346 346 347 349 350 352 360 3 28 350 317 348 25 334 328 32 88 315 5 53 65 96 195 186 325 349 348 7 10 24 30 329 357 351 359 359 3 13 326 15 328 305 299 290 277 277 276 264 272 282 296 298 306 142 134 146 97 113 120 115 105 85 63 294 337 47 33 31 61 45 281 301 153 122 110 80 56 52 56 68 107 108 102 85
353 352 348 347 346 347 348 350 350 356 9 318 267 264 334 336 288 246 259 174 24 11 25 50 102 247 236 78 11 29 359 14 18 7 322 337 318 346 359 350 14 338 319 314 314 315 301 275 251 243 257 269 270 279 292 300 68 108 138 127 138 122 109 127 147 140 200 327 55 60 66 82 305 309 40 70 76 68 80 63 55 69 76 85 89 93 100
354 352 349 348 347 347 348 348 350 350 355 348 294 265 332 353 339 336 348 46 51 14 11 5 3 34 358 181 203 284 223 272 39 330 322 11 321 344 342 329 326 317 321 309 315 307 308 314 311 294 272 234 221 229 278 104 120 107 88 104 114 118 113 133 91 123 94 69 62 121 125 202 309 2 21 41 80 75 65 52 32 47 88 95 93 100 105
353 352 350 349 348 348 349 349 349 349 350 356 335 296 332 8 19 360 44 42 34 22 6 13 6 353 326 0 19 215 307 314 268 248 351 305 301 324 301 331 336 292 292 306 294 301 330 15 13 4 332 0 8 41 348 25 16 16 3 144 79 141 117 84 144 177 125 141 77 89 114 107 20 350 4 1 7 350 307 120 33 27 77 111 115 115 114
355 353 352 351 350 350 350 351 350 349 350 355 314 302 17 7 33 355 283 168 125 47 36 37 325 339 356 22 21 10 336 278 342 297 260 346 285 39 308 299 286 346 314 312 319 325 114 353 10 24 347 44 38 303 342 23 311 19 12 22 135 122 130 217 99 287 117 123 103 76 68 178 128 302 306 335 4 349 343 102 66 7 53 101 127 132 137
359 354 353 353 352 351 352 352 351 350 354 353 358 347 336 351 338 333 329 312 89 43 338 3 351 3 12 10 8 9 354 349 360 323 255 208 87 351 321 321 343 41 318 354 299 330 1 78 309 59 38 18 351 54 330 334 346 338 31 29 24 41 68 103 115 163 63 102 127 126 148 101 200 305 304 314 355 350 325 82 84 253 114 87 108 118 129
360 356 355 354 352 353 354 354 352 352 354 2 340 324 328 351 11 351 12 9 76 84 0 11 10 18 17 4 358 7 359 23 341 347 341 358 24 358 347 332 336 350 348 25 1 11 12 121 113 15 76 70 91 214 211 34 6 356 349 37 44 28 353 16 37 35 347 121 82 121 64 192 282 286 293 315 14 318 38 95 149 205 127 107 96 109 111
1 357 357 355 354 354 355 354 355 352 356 356 359 325 312 335 357 360 29 80 89 37 7 27 32 25 25 357 8 348 6 2 353 326 27 330 15 348 326 344 349 20 21 41 357 331 338 273 103 112 100 313 241 226 65 334 48 285 318 33 53 23 345 35 161 114 60 70 85 92 66 320 286 287 301 290 307 354 66 114 259 75 90 132 134 130 108
359 359 357 356 354 355 354 356 355 355 356 358 344 323 318 349 4 34 11 49 62 66 11 43 55 53 22 22 26 18 22 20 359 27 333 348 349 322 309 81 8 352 8 9 336 346 18 351 13 69 97 297 0 83 223 46 344 8 11 31 67 21 7 8 40 56 55 62 78 98 73 240 271 280 286 309 65 68 115 227 115 96 84 78 88 90 89
359 359 359 357 355 355 355 355 356 355 355 357 2 288 271 333 25 59 62 357 66 86 37 58 36 59 46 41 19 20 360 21 19 22 16 339 303 326 11 13 356 14 4 10 25 337 13 10 328 13 52 100 353 182 60 82 62 27 58 73 92 256 69 48 34 305 84 78 96 81 66 329 340 323 5 8 77 103 132 101 71 75 80 79 69 68 63
359 360 359 357 356 356 355 356 356 356 356 355 357 333 333 3 5 10 50 41 94 85 0 24 78 65 59 70 43 37 39 44 18 8 328 309 291 353 58 5 330 349 13 359 9 340 351 350 354 5 5 41 343 34 139 147 59 23 62 105 66 341 86 57 48 337 114 77 71 85 65 356 356 58 108 341 38 115 100 97 78 57 70 77 80 69 76
360 359 359 357 357 356 355 355 354 354 356 357 354 347 14 347 356 3 342 341 100 138 202 184 129 119 94 82 141 114 69 38 58 49 8 337 343 58 85 10 356 355 22 341 24 348 3 325 358 31 15 352 7 22 335 74 31 336 31 51 64 4 91 110 105 323 83 114 113 98 78 56 40 60 73 62 53 60 73 85 86 79 62 69 86 84 75
360 359 358 357 357 356 355 353 352 351 354 358 4 26 326 327 349 339 349 342 2 28 310 325 42 30 70 85 48 8 112 102 108 57 43 41 353 25 55 18 353 319 353 41 67 226 258 15 283 161 53 36 348 328 39 74 98 21 68 54 134 101 104 99 85 73 83 83 99 107 85 69 60 53 52 57 59 55 65 69 73 58 62 58 63 52 57
359 358 357 357 355 355 354 352 351 348 350 351 0 315 320 321 338 351 351 323 107 79 353 5 63 337 345 37 356 52 15 71 78 124 100 81 72 344 339 59 281 340 339 301 260 286 281 238 248 56 81 350 4 47 49 30 29 341 46 40 71 113 114 79 103 162 105 89 91 98 107 106 97 81 66 60 59 61 59 69 71 78 74 74 74 75 67
355 355 354 353 352 352 351 351 348 346 347 352 349 321 283 306 352 16 25 22 353 10 147 314 48 226 337 93 285 72 63 13 49 54 50 85 83 74 356 290 216 175 279 291 334 26 11 34 360 27 73 6 56 6 20 83 19 34 84 12 35 40 109 70 73 77 80 123 125 115 109 102 94 91 87 77 76 80 77 81 84 83 84 82 82 79 73
351 351 351 350 350 348 348 348 346 344 346 344 346 331 329 326 358 357 36 42 264 192 117 94 149 312 43 56 52 68 51 45 351 57 50 57 84 337 290 328 6 166 221 287 12 38 13 24 33 44 52 327 60 58 1 3 121 77 80 27 333 18 54 105 133 95 102 114 118 117 115 98 98 96 91 101 106 96 104 103 102 95 78 66 73 96 96
348 348 347 347 346 345 345 344 343 343 343 342 337 319 319 311 39 43 36 323 16 358 17 97 208 184 60 52 42 69 54 45 1 2 27 33 19 350 22 9 6 353 8 354 351 81 47 51 58 10 29 277 332 294 72 25 45 49 45 18 17 51 66 94 100 109 128 153 147 146 126 126 112 111 130 135 129 120 111 91 81 86 96 97 96 85 80
344 345 344 343 343 342 341 340 339 340 340 334 314 291 284 331 57 29 5 11 64 132 205 299 333 215 319 14 6 82 68 65 8 12 7 15 10 17 31 353 6 12 353 37 15 28 45 47 353 291 52 344 34 347 354 97 67 38 34 23 47 89 96 138 113 123 113 98 102 106 106 96 108 123 122 108 112 115 99 91 98 82 75 71 62 71 90
341 340 339 339 339 339 337 335 336 337 337 334 304 300 295 96 80 55 9 345 360 43 253 228 217 43 84 285 340 33 107 99 76 26 350 322 355 49 25 33 36 335 354 8 61 85 90 128 31 52 60 261 81 316 350 50 68 74 59 40 41 61 83 87 96 97 89 96 102 100 104 112 108 90 79 72 54 63 86 77 69 71 74 66 69 91 103
337 336 335 335 335 334 333 332 333 336 334 327 328 310 68 341 16 58 14 347 332 304 52 23 62 228 69 21 26 323 274 99 48 356 337 341 7 12 8 58 21 15 42 34 64 54 319 107 344 34 61 45 91 271 62 69 85 153 84 68 66 69 63 66 68 82 101 101 101 105 114 124 121 104 99 92 92 92 94 98 99 82 62 82 85 60 73
334 333 332 331 331 329 328 327 331 336 334 309 283 4 41 48 295 47 6 343 330 29 50 130 247 128 79 255 245 323 356 94 113 23 318 328 12 359 354 61 38 49 37 1 33 3 38 44 12 4 12 46 102 48 45 80 78 64 71 72 64 68 75 80 76 76 90 107 118 114 82 66 67 63 64 84 80 85 99 106 110 111 132 131 152 124 103
331 331 330 329 327 324 321 322 334 341 318 354 48 108 157 219 256 332 329 308 318 8 89 18 323 107 110 306 319 251 349 9 287 131 305 348 17 2 340 74 78 44 97 89 248 42 10 337 78 336 31 324 52 28 46 66 74 79 69 68 66 70 65 61 61 57 59 67 81 70 64 69 84 110 119 100 97 81 83 129 148 164 148 148 195 141 150
329 327 326 323 322 320 318 320 331 344 312 304 273 276 275 281 310 307 301 317 318 205 242 202 239 169 127 204 237 5 353 293 313 96 351 327 35 45 353 343 88 59 347 56 4 83 231 54 51 43 322 7 74 37 91 102 126 125 99 87 80 77 71 69 73 74 72 58 53 88 92 96 86 79 73 63 97 88 69 67 60 54 56 48 44 67 71
324 325 323 323 320 318 320 321 305 288 259 286 342 221 218 219 285 261 297 240 259 288 15 88 337 343 178 306 72 296 337 22 351 66 84 296 301 62 140 272 338 70 318 89 252 70 345 54 39 279 3 348 31 70 63 135 127 110 104 101 96 83 89 94 85 75 74 93 102 102 112 113 133 121 118 181 116 106 100 76 60 44 18 30 16 85 142
322 322 323 322 320 312 305 297 300 239 279 258 145 77 3 320 279 287 314 12 33 352 347 285 118 333 105 46 55 283 331 349 49 10 103 254 84 359 335 50 334 66 286 265 21 110 92 316 254 58 155 351 37 54 29 54 57 90 116 117 111 100 77 80 97 102 89 76 67 54 39 36 39 109 109 73 94 101 93 95 93 76 39 16 353 342 337
320 319 320 315 306 297 280 224 220 254 257 333 290 182 192 271 283 245 227 299 137 110 3 279 7 255 105 114 104 277 336 26 333 292 93 51 22 313 53 80 38 273 229 88 91 35 72 265 75 18 346 57 59 108 92 68 80 66 89 132 148 145 161 144 128 105 95 94 96 95 101 281 48 72 51 240 140 120 113 108 101 90 77 47 320 318 320
317 316 307 298 280 263 292 242 194 107 204 215 285 317 294 299 224 188 198 204 251 182 216 314 353 296 98 135 103 293 13 38 329 12 21 42 339 285 19 38 73 272 8 24 35 58 113 56 90 321 354 122 100 39 70 68 63 54 36 64 157 157 148 127 125 118 117 113 136 144 86 29 192 188 192 273 163 137 124 120 133 132 133 245 288 341 75
310 306 303 276 207 328 240 331 306 258 29 301 288 322 13 59 10 288 126 265 190 115 267 188 255 296 29 74 46 293 333 324 334 80 20 320 29 4 357 92 242 45 9 68 266 234 320 42 21 88 46 17 65 67 67 65 56 37 38 17 41 87 121 129 134 136 146 149 160 108 71 28 39 24 19 354 21 131 130 137 129 120 121 171 247 250 132
286 255 228 290 295 325 35 252 83 21 312 276 67 42 286 182 68 329 209 174 71 322 257 86 351 35 39 62 3 323 81 218 335 16 68 309 77 339 27 49 297 64 325 55 300 338 29 302 123 66 60 300 23 347 28 60 68 53 49 40 31 51 118 129 134 133 149 154 147 129 124 117 79 32 349 356 37 92 127 121 124 122 130 190 234 100 91
186 176 221 189 153 218 251 107 58 351 26 20 289 104 309 248 104 198 287 41 284 263 46 48 276 67 106 136 146 333 324 46 65 21 338 356 40 109 275 346 303 74 301 66 266 314 94 310 294 83 342 326 279 359 44 28 43 43 60 51 31 16 107 154 156 132 119 120 120 115 99 84 83 55 13 323 82 90 100 100 106 122 124 141 158 150 108
338 290 306 36 334 160 222 210 205 333 113 233 284 340 34 338 270 161 80 247 210 179 187 140 211 105 21 20 57 81 293 1 20 88 117 103 257 77 12 31 228 51 317 74 289 35 7 354 62 99 181 291 93 60 35 48 49 29 18 27 29 12 8 165 149 123 111 115 105 99 94 84 61 35 338 296 139 111 139 138 135 155 126 137 70 84 110
341 260 328 300 276 267 212 339 41 339 339 327 109 264 197 201 288 19 160 72 46 102 33 26 17 46 38 12 41 126 89 284 215 71 89 65 299 79 266 312 13 99 34 284 317 279 154 262 82 59 272 27 31 29 65 64 47 33 10 2 37 18 16 8 78 86 81 85 91 91 96 106 122 234 262 53 90 101 127 138 142 185 194 172 144 117 121
297 265 195 262 241 262 140 241 223 153 100 5 41 13 327 356 204 203 206 170 252 90 257 262 129 110 27 12 358 72 153 230 69 339 57 128 271 66 53 10 41 2 283 326 12 309 44 294 76 228 258 65 79 70 62 59 50 28 4 342 20 34 32 15 57 94 101 94 89 82 72 65 52 357 223 89 131 113 126 145 168 202 173 155 163 129 131
251 218 174 228 123 267 137 333 333 42 356 243 124 165 215 237 267 241 168 148 47 48 359 85 208 135 120 310 133 2 32 355 29 54 28 53 71 28 72 204 177 248 109 12 358 350 281 67 103 193 191 115 86 78 64 52 24 356 327 322 2 54 23 1 18 2 86 94 97 102 102 89 81 356 303 133 119 129 131 182 198 145 110 96 95 129 153
329 167 188 23 17 252 62 326 306 151 225 205 199 220 177 209 181 74 106 208 85 166 239 27 32 52 112 255 35 23 85 145 347 92 224 74 25 254 132 308 6 17 4 302 306 295 8 67 287 67 68 59 65 67 62 32 357 307 292 29 25 10 0 343 258 209 141 141 158 140 150 125 105 296 342 165 139 137 145 254 192 151 139 137 195 153 161
239 143 108 87 348 301 208 198 148 238 248 195 217 216 99 39 62 117 182 69 95 77 67 46 23 44 30 181 128 175 309 105 55 279 88 96 89 353 35 328 46 339 358 2 19 352 111 164 159 144 148 143 124 107 74 26 358 349 45 52 4 360 356 352 357 48 83 71 95 119 135 142 109 53 329 324 188 164 175 230 194 172 168 166 204 184 166
265 339 193 87 103 226 179 205 209 214 222 209 153 98 93 92 75 74 36 31 67 46 71 53 40 107 35 335 14 354 65 83 104 284 68 28 109 357 56 77 355 353 1 314 288 340 11 19 18 36 62 90 80 63 64 20 331 326 354 51 85 11 352 353 359 359 33 166 162 175 164 162 178 183 178 2 322 194 145 202 268 198 161 172 177 161 153
298 188 118 109 223 169 182 239 227 259 51 68 65 73 99 125 95 55 33 36 59 48 46 20 5 2 2 336 83 172 125 99 62 313 105 212 58 70 36 30 293 254 189 228 149 168 213 113 89 102 124 132 125 115 46 355 300 305 41 346 356 50 46 29 355 337 336 12 66 37 15 331 176 144 170 207 249 273 157 224 267 280 175 148 125 139 156
211 61 271 210 226 201 230 236 224 200 109 69 59 84 78 67 75 82 55 35 58 58 58 61 66 46 307 235 169 99 19 36 77 304 62 72 86 207 114 247 221 304 296 84 80 75 65 67 57 64 82 127 159 151 165 267 7 13 16 338 358 131 93 65 20 349 338 319 195 160 186 257 276 210 184 190 198 227 194 205 248 276 173 155 166 189 198
37 309 285 293 312 298 307 37 61 60 63 74 41 41 91 96 81 42 1 45 55 65 30 43 75 92 274 13 21 31 337 96 141 69 75 221 192 176 137 255 208 208 293 126 130 116 96 81 67 34 10 360 12 28 32 16 350 311 280 255 261 138 137 154 138 22 337 302 302 167 189 216 241 234 221 222 214 193 190 196 211 252 258 197 177 195 215
252 184 260 235 259 284 21 18 14 45 51 60 72 40 64 115 124 103 337 58 70 56 72 113 171 149 344 16 64 24 282 55 34 252 167 228 162 209 175 215 276 45 4 353 119 148 144 138 120 134 72 15 329 321 294 104 298 284 282 265 250 219 162 173 188 216 242 266 244 195 196 204 214 233 245 258 179 136 159 203 205 212 241 233 196 196 209
207 244 260 244 238 252 174 179 151 98 125 114 96 64 53 87 96 120 11 39 107 115 233 119 60 112 160 230 209 71 57 53 236 22 16 312 52 332 353 104 121 131 97 350 342 344 147 151 132 137 156 175 356 36 7 332 318 308 298 300 322 299 169 176 201 213 259 274 306 280 205 204 217 225 220 225 201 158 180 221 233 267 273 251 216 200 206